This is the latest recevied weather packets stored in our database for station/object K2RMB. If no packets are shown the sender has not sent any weather packets the latest 10 day(s).
| Time | Temp. | Humidity | Pressure | Rain* | Wind** | Luminosity | Snow |
|---|---|---|---|---|---|---|---|
| 1777675369 | 12.22° C | 42% | 1011.1 hPa | 0 mm | - | 53 W/m² | - |
| 1777675064 | 12.22° C | 41% | 1010.8 hPa | 0 mm | - | 56 W/m² | - |
| 1777674761 | 12.22° C | 42% | 1011.1 hPa | 0 mm | - | 56 W/m² | - |
| 1777674458 | 12.22° C | 41% | 1010.8 hPa | 0 mm | - | 56 W/m² | - |
| 1777674155 | 13.33° C | 39% | 1010.8 hPa | 0 mm | - | 72 W/m² | - |
| 1777673851 | 12.78° C | 39% | 1011.1 hPa | 0 mm | - | 109 W/m² | - |
| 1777673549 | 12.78° C | 39% | 1010.8 hPa | 0 mm | - | 132 W/m² | - |
| 1777673246 | 13.33° C | 38% | 1011.1 hPa | 0 mm | - | 110 W/m² | - |
| 1777672943 | 12.78° C | 38% | 1011.1 hPa | 0 mm | - | 137 W/m² | - |
| 1777672641 | 13.33° C | 37% | 1010.8 hPa | 0 mm | - | 142 W/m² | - |
| 1777672335 | 13.33° C | 38% | 1010.8 hPa | 0 mm | - | 158 W/m² | - |
| 1777672031 | 13.33° C | 37% | 1011.1 hPa | 0 mm | - | 207 W/m² | - |
| 1777671727 | 13.89° C | 36% | 1010.8 hPa | 0 mm | - | 230 W/m² | - |
| 1777671423 | 13.89° C | 35% | 1010.8 hPa | 0 mm | - | 247 W/m² | - |
| 1777671119 | 13.89° C | 34% | 1010.8 hPa | 0 mm | - | 272 W/m² | - |
| 1777670816 | 13.89° C | 35% | 1010.8 hPa | 0 mm | - | 289 W/m² | - |
| 1777670513 | 13.89° C | 33% | 1010.8 hPa | 0 mm | - | 304 W/m² | - |
| 1777670210 | 13.89° C | 34% | 1010.8 hPa | 0 mm | - | 321 W/m² | - |
| 1777669907 | 14.44° C | 34% | 1010.8 hPa | 0 mm | - | 329 W/m² | - |
| 1777669604 | 13.89° C | 35% | 1010.8 hPa | 0 mm | - | 346 W/m² | - |
| 1777669301 | 13.89° C | 34% | 1010.8 hPa | 0 mm | - | 370 W/m² | - |
| 1777668997 | 14.44° C | 33% | 1010.8 hPa | 0 mm | - | 383 W/m² | - |
| 1777668695 | 13.89° C | 34% | 1010.8 hPa | 0 mm | - | 403 W/m² | - |
| 1777668391 | 13.89° C | 35% | 1010.8 hPa | 0 mm | - | 418 W/m² | - |
| 1777668087 | 13.89° C | 35% | 1010.8 hPa | 0 mm | - | 436 W/m² | - |
* Rain latest hour (hover to see other rain measurements)
** Current wind speed in m/s (hover to see current wind gust speed)